[[{"header":{"parameterUnit":"m.s-1","parameterCategory":1,"la1":30.2991,"la2":30.254,"lo1":-89.0895,"lo2":-89.0444,"dy":0.0017,"dx":0.0017,"nx":28,"ny":28,"refTime":"2025-12-24T03:00:00:Z","depth":0,"parameterNumber":2,"parameterNumberName":"U-component_of_WINDS"},"data":[0,0,0,0,0,0,0,0,0,0,0,0,0,0,0,0,0,0,0,0,0,0,0,0,0,0,0,0,0,0,0,0,0,0,0,0,0,0,0,0,0,0,0,0,0,0,0,0,0,0,0,0,0,0,0,0,0,0,0.3528,0.3529,0,0.3616,0.3617,0.3618,0.3663,0.3663,0.3663,0.3663,0.3755,0.3757,0.3759,0,0,0,0,0,0,0,0,0,0,0,0,0,0.3398,0.34,0.3527,0.3529,0.353,0.3616,0.3617,0.3618,0.3663,0.3663,0.3663,0.3663,0.3754,0.3757,0.3759,0,0,0,0,0,0,0,0,0,0,0,0,0,0.3467,0.3401,0.3527,0.3562,0.3566,0.3616,0.3617,0.3619,0.3663,0.3663,0.3663,0.3663,0.3753,0.3756,0.376,0.3781,0,0,0.3771,0.3772,0,0,0,0,0,0,0,0,0.3463,0.3472,0.3556,0.356,0.3565,0.3629,0.3605,0.3673,0.3663,0.3626,0.3663,0.3663,0.3713,0.372,0.3736,0.3785,0.3789,0.3771,0.3773,0.3775,0.3776,0,0,0,0,0,0,0,0.3458,0.3468,0.3563,0.3557,0.3563,0.3574,0.3584,0.3618,0.3668,0.363,0.3633,0.3643,0.3715,0.3733,0.3739,0.3791,0.3771,0.3774,0.3777,0.3778,0.3863,0.3863,0,0,0,0,0,0,0.3448,0.3464,0.356,0.3565,0.3513,0.3576,0.3587,0.3608,0.3668,0.3677,0.3643,0.3645,0.3726,0.3734,0.3742,0.3771,0.3775,0.3778,0.378,0.3862,0.3863,0.3863,0,0,0,0,0,0,0.3445,0.3456,0.3556,0.3516,0.3529,0.3579,0.3601,0.361,0.3627,0.3678,0.3687,0.3651,0.3727,0.3737,0.3771,0.3775,0.378,0.3783,0.3862,0.3863,0.3863,0.3829,0,0,0,0,0,0,0.3441,0.3455,0.3463,0.3516,0.3531,0.3583,0.3602,0.3611,0.3633,0.3637,0.3688,0.3697,0.3728,0.3766,0.3775,0.378,0.3786,0.3862,0.3862,0.3863,0.383,0.3828,0.3827,0,0,0,0,0,0.3436,0.345,0.3463,0.3474,0.3543,0.3584,0.3593,0.3627,0.3633,0.3642,0.3675,0.3695,0.3773,0.3769,0.3779,0.3786,0.3862,0.3862,0.3863,0.3831,0.3829,0.3827,0,0,0,0,0,0,0.3396,0.3457,0.3473,0.3504,0.3538,0.3591,0.3603,0.3623,0.3657,0.3659,0.37,0.3712,0.3742,0.3768,0.3762,0.381,0.382,0.3822,0.3792,0.379,0.3788,0.3782,0.3789,0,0,0,0,0,0.3391,0.3419,0.3471,0.3493,0.351,0.3553,0.3573,0.3596,0.3634,0.3649,0.3684,0.3719,0.3752,0.3773,0.3805,0.3834,0.3846,0.3844,0.3842,0.384,0.3842,0.386,0.3859,0.3863,0.3863,0.3863,0,0,0.3381,0.3417,0.3433,0.3486,0.3516,0.3544,0.3565,0.3594,0.3616,0.3653,0.3688,0.3715,0.3757,0.3789,0.3805,0.3811,0.3844,0.3841,0.3839,0.3841,0.386,0.3859,0.3859,0.3863,0.3863,0.3863,0,0,0.3376,0.3407,0.3429,0.3458,0.3502,0.3532,0.3537,0.3587,0.3606,0.3642,0.367,0.3697,0.3752,0.3781,0.3803,0.3811,0.3831,0.382,0.381,0.3827,0.3827,0.3827,0.383,0.383,0.3822,0.3822,0.3822,0,0.3357,0.3401,0.3438,0.3465,0.3488,0.3523,0.3547,0.3573,0.3626,0.3641,0.3647,0.3718,0.3749,0.3788,0.379,0.3807,0.3815,0.3814,0.3824,0.3824,0.3825,0.3828,0.3829,0.382,0.382,0.382,0.382,0,0.3376,0.3406,0.3419,0.3469,0.3493,0.3518,0.3559,0.358,0.3602,0.363,0.3666,0.3705,0.3746,0.3758,0.3779,0.38,0.3803,0.3816,0.3827,0.3822,0.3826,0.3828,0.3818,0.3818,0.3819,0.3819,0,0,0.3348,0.3419,0.3423,0.3446,0.3498,0.3522,0.3549,0.359,0.3607,0.3642,0.3666,0.3712,0.3725,0.375,0.3775,0.379,0.3794,0.3802,0.3804,0.3799,0.3821,0.381,0.3811,0.3808,0.3808,0.3809,0.3817,0,0.3351,0.3401,0.3435,0.3472,0.35,0.3534,0.3558,0.3592,0.362,0.3648,0.3679,0.3711,0.3725,0.3741,0.3757,0.379,0.3799,0.379,0.3831,0.3832,0.3819,0.3813,0.3802,0.3808,0.3819,0.3819,0.3819,0,0.336,0.3395,0.3434,0.3484,0.3497,0.3518,0.3558,0.3585,0.3625,0.3644,0.3672,0.3698,0.3729,0.3737,0.378,0.3773,0.3792,0.3811,0.3812,0.3817,0.3825,0.3818,0.3811,0.3812,0.3822,0.3822,0.3822,0,0.3336,0.3392,0.3424,0.3443,0.3501,0.3515,0.354,0.358,0.3603,0.3638,0.3653,0.3692,0.3713,0.3742,0.3778,0.3781,0.3818,0.3829,0.3835,0.3834,0.3841,0.384,0.3836,0.3853,0.3853,0.3853,0.3853,0,0.3335,0.3358,0.3413,0.3432,0.3459,0.3499,0.3524,0.3553,0.3588,0.3614,0.3646,0.3669,0.3715,0.3744,0.3773,0.3804,0.3813,0.383,0.3837,0.3827,0.3825,0.384,0.3841,0.3853,0.3853,0.3853,0.3853,0,0.3312,0.335,0.3386,0.3439,0.3453,0.3471,0.3516,0.3536,0.3566,0.3598,0.3607,0.3654,0.369,0.3729,0.3778,0.3797,0.3827,0.3837,0.3813,0.3818,0.3821,0.382,0.3828,0.3831,0.3844,0.3844,0.3844,0,0.3309,0.3327,0.3382,0.3402,0.3426,0.3457,0.348,0.352,0.3543,0.3591,0.3605,0.3644,0.3677,0.3733,0.3771,0.3809,0.382,0.382,0.3826,0.3816,0.3821,0.3819,0.3821,0.3818,0.3818,0.3818,0.3817,0,0.3299,0.3318,0.335,0.3389,0.3416,0.3448,0.3482,0.3496,0.3543,0.3567,0.3605,0.363,0.368,0.3718,0.3761,0.3788,0.381,0.3815,0.3819,0.3809,0.3794,0.3802,0.3808,0.3815,0.3815,0.3815,0.3815,0.3816,0.3286,0.3305,0.3346,0.3381,0.3411,0.3442,0.3464,0.3497,0.3528,0.3572,0.3594,0.3632,0.3673,0.3732,0.3758,0.3788,0.3795,0.38,0.3801,0.3802,0.3799,0.3789,0.3796,0.3796,0.3797,0.3797,0.3797,0,0.3278,0.3307,0.3339,0.3386,0.3413,0.3433,0.3472,0.3494,0.3526,0.3562,0.3594,0.3637,0.3675,0.3716,0.3756,0.3772,0.3784,0.3781,0.3781,0.3786,0.3791,0.3784,0.3771,0.3771,0.3771,0.3771,0.3771,0.3771,0.3278,0.331,0.3333,0.338,0.3409,0.3446,0.3466,0.3496,0.3525,0.3572,0.3603,0.363,0.3669,0.3712,0.3747,0.3759,0.3772,0.3766,0.3781,0.3784,0.3786,0.3788,0.3782,0.3769,0.3769,0.3774,0.3774,0.3774]},{"header":{"parameterUnit":"m.s-1","parameterCategory":1,"la1":30.2991,"la2":30.254,"lo1":-89.0895,"lo2":-89.0444,"dy":0.0017,"dx":0.0017,"nx":28,"ny":28,"refTime":"2025-12-24T03:00:00:Z","depth":0,"parameterNumber":3,"parameterNumberName":"V-component_of_WINDS"},"data":[0,0,0,0,0,0,0,0,0,0,0,0,0,0,0,0,0,0,0,0,0,0,0,0,0,0,0,0,0,0,0,0,0,0,0,0,0,0,0,0,0,0,0,0,0,0,0,0,0,0,0,0,0,0,0,0,0,0,0.2955,0.2955,0,0.294,0.294,0.294,0.2971,0.2972,0.2973,0.2974,0.2954,0.2953,0.2951,0,0,0,0,0,0,0,0,0,0,0,0,0,0.3005,0.3004,0.2955,0.2955,0.2954,0.294,0.294,0.294,0.2971,0.2972,0.2973,0.2974,0.2955,0.2953,0.2951,0,0,0,0,0,0,0,0,0,0,0,0,0,0.2986,0.3004,0.2955,0.2968,0.2969,0.294,0.294,0.294,0.297,0.2972,0.2974,0.2975,0.2955,0.2953,0.2951,0.2907,0,0,0.2944,0.2943,0,0,0,0,0,0,0,0,0.2987,0.2984,0.2967,0.2967,0.2968,0.2959,0.2951,0.2928,0.297,0.297,0.2974,0.2976,0.2954,0.2952,0.2946,0.2906,0.2905,0.2944,0.2943,0.2942,0.2941,0,0,0,0,0,0,0,0.2989,0.2985,0.2949,0.2966,0.2967,0.2974,0.2973,0.2947,0.2953,0.297,0.2972,0.297,0.2955,0.2948,0.2946,0.2905,0.2944,0.2942,0.2941,0.294,0.2826,0.2825,0,0,0,0,0,0,0.2989,0.2986,0.2949,0.2948,0.2982,0.2972,0.297,0.296,0.2954,0.2955,0.2969,0.2972,0.2951,0.2948,0.2945,0.2892,0.2942,0.294,0.2938,0.2828,0.2826,0.2824,0,0,0,0,0,0,0.299,0.2985,0.295,0.2968,0.2964,0.2969,0.2958,0.2959,0.2952,0.2953,0.2954,0.2961,0.2952,0.2948,0.2916,0.2892,0.2939,0.2937,0.283,0.2828,0.2825,0.2787,0,0,0,0,0,0,0.2991,0.2985,0.297,0.2967,0.2963,0.2922,0.2956,0.2958,0.2949,0.2953,0.2946,0.2946,0.2953,0.2919,0.2914,0.289,0.2935,0.2832,0.2829,0.2826,0.279,0.2783,0.2777,0,0,0,0,0,0.2993,0.2958,0.2969,0.2964,0.2943,0.2921,0.2918,0.2928,0.2947,0.293,0.2931,0.2946,0.2896,0.2916,0.291,0.2885,0.2834,0.283,0.2826,0.2793,0.2784,0.2777,0,0,0,0,0,0,0.2956,0.2958,0.297,0.2934,0.2927,0.2926,0.2906,0.2919,0.2906,0.2909,0.2921,0.2919,0.2884,0.2882,0.2904,0.2841,0.2868,0.2863,0.2844,0.2836,0.283,0.2831,0.2933,0,0,0,0,0,0.2944,0.2927,0.293,0.2898,0.2894,0.29,0.2891,0.2899,0.2892,0.2889,0.2887,0.2878,0.2861,0.2848,0.2832,0.279,0.2788,0.277,0.2763,0.2758,0.2753,0.273,0.2721,0.2812,0.2812,0.2812,0,0,0.2919,0.2918,0.2906,0.289,0.2886,0.2867,0.2898,0.2876,0.2861,0.2885,0.2855,0.2853,0.2844,0.2807,0.279,0.2803,0.2728,0.2753,0.2749,0.2747,0.2725,0.2716,0.2709,0.2809,0.281,0.281,0,0,0.2862,0.286,0.2834,0.2829,0.2823,0.2827,0.2821,0.2818,0.2818,0.2789,0.2806,0.2788,0.2757,0.275,0.2742,0.2683,0.2696,0.2678,0.2643,0.262,0.2613,0.2607,0.2585,0.2577,0.2673,0.2673,0.2673,0,0.2831,0.2804,0.2818,0.2795,0.2787,0.2809,0.2781,0.2776,0.2764,0.2757,0.2772,0.2734,0.273,0.2691,0.2676,0.267,0.2661,0.2678,0.2614,0.2607,0.2602,0.2581,0.2572,0.267,0.2671,0.2671,0.2671,0,0.2765,0.2746,0.2725,0.2715,0.2704,0.2679,0.2687,0.2675,0.2684,0.2687,0.2655,0.2651,0.2634,0.2626,0.2634,0.2587,0.2595,0.2612,0.2639,0.259,0.2571,0.2563,0.2667,0.2668,0.2669,0.2669,0,0,0.2685,0.2683,0.2674,0.267,0.2665,0.2649,0.2625,0.261,0.2598,0.2589,0.2568,0.2541,0.2557,0.2548,0.2556,0.2536,0.2488,0.2555,0.2555,0.2542,0.2435,0.2422,0.2413,0.2497,0.2496,0.2495,0.2436,0,0.2628,0.2587,0.2599,0.2557,0.2539,0.256,0.2538,0.2532,0.2534,0.2517,0.2519,0.25,0.2522,0.2517,0.2498,0.2498,0.2467,0.2503,0.2476,0.2475,0.2477,0.2403,0.2389,0.2333,0.2428,0.2427,0.2426,0,0.2557,0.2547,0.2503,0.2501,0.2494,0.2475,0.2461,0.2446,0.2439,0.2441,0.2432,0.2444,0.2418,0.2445,0.2409,0.2433,0.2423,0.2421,0.2419,0.2416,0.2447,0.2396,0.2316,0.2307,0.2414,0.2415,0.2416,0,0.2501,0.2476,0.2447,0.2443,0.244,0.2425,0.2423,0.2418,0.2408,0.2396,0.2389,0.2374,0.2365,0.2352,0.2359,0.2378,0.232,0.2349,0.232,0.232,0.2306,0.2307,0.2221,0.2301,0.2302,0.2302,0.2302,0,0.2436,0.2409,0.2422,0.2404,0.2374,0.2387,0.2356,0.2356,0.2351,0.2332,0.2349,0.2331,0.2341,0.2323,0.2328,0.2296,0.2292,0.2293,0.2294,0.229,0.229,0.2283,0.2287,0.2299,0.23,0.23,0.2301,0,0.2369,0.2377,0.2346,0.2346,0.2346,0.2323,0.2322,0.2305,0.2308,0.2284,0.2279,0.2284,0.2263,0.2269,0.2247,0.225,0.221,0.2217,0.2213,0.2214,0.2184,0.2187,0.2091,0.2078,0.2167,0.2166,0.2166,0,0.2326,0.2306,0.2304,0.2293,0.229,0.2273,0.2263,0.2275,0.2264,0.2254,0.2237,0.2219,0.2205,0.2171,0.2172,0.2154,0.216,0.2128,0.2158,0.2154,0.2158,0.2159,0.2156,0.2121,0.212,0.2119,0.2119,0,0.225,0.2255,0.2241,0.2229,0.2217,0.2207,0.2199,0.2189,0.22,0.2186,0.2167,0.2156,0.2134,0.2114,0.2099,0.2095,0.2108,0.211,0.2102,0.2097,0.2096,0.2095,0.2195,0.2111,0.2112,0.2113,0.2113,0.2113,0.2193,0.2175,0.2172,0.2155,0.2151,0.2142,0.2126,0.2128,0.2112,0.2096,0.2104,0.208,0.2073,0.2054,0.2048,0.2029,0.2041,0.203,0.2027,0.2024,0.202,0.21,0.2026,0.2026,0.2027,0.2027,0.2027,0,0.2116,0.2115,0.21,0.2089,0.2076,0.2091,0.2083,0.207,0.205,0.2043,0.2029,0.2006,0.1988,0.1987,0.1969,0.1954,0.196,0.1949,0.195,0.1948,0.201,0.2018,0.1945,0.1945,0.1945,0.1945,0.1945,0.1945,0.2075,0.2046,0.2051,0.202,0.2018,0.1997,0.1991,0.1983,0.1977,0.1951,0.1936,0.1937,0.1932,0.1914,0.1897,0.1897,0.1889,0.1876,0.1878,0.1936,0.1944,0.1952,0.1959,0.1875,0.1875,0.1818,0.1817,0.1817]}]]